• MPC Preparation (Info)

  • MPEC 2016-O151: 2014 MH70

    The following Minor Planet Electronic Circular may be linked-to from your own Web pages, but must not otherwise be redistributed electronically.

    A form allowing access to any MPEC is at the bottom of this page.


    Read MPEC 2016-O150 Read MPEC 2016-O152


    M.P.E.C. 2016-O151                               Issued 2016 July 17, 08:33 UT
    
         The Minor Planet Electronic Circulars contain information on unusual
             minor planets and routine data on comets.  They are published
        on behalf of Division F of the International Astronomical Union by the
              Minor Planet Center, Smithsonian Astrophysical Observatory,
                              Cambridge, MA 02138, U.S.A.
    
                 Prepared using the Tamkin Foundation Computer Network
    
                                  MPC@CFA.HARVARD.EDU
                URL https://www.minorplanetcenter.net/    ISSN 1523-6714
    
                                       2014 MH70
    
    Observations:
         K14M70H  C2013 08 09.44177 22 27 23.565-12 39 43.83         22.2 wLEO151F51
         K14M70H  C2013 08 09.45603 22 27 23.498-12 39 44.28         22.0 wLEO151F51
         K14M70H  C2013 08 09.47027 22 27 23.437-12 39 44.58         22.1 wLEO151F51
         K14M70H  C2013 08 09.48450 22 27 23.379-12 39 44.95         22.0 wLEO151F51
         K14M70H  C2013 08 31.40782 22 25 48.487-12 49 07.94         22.1 wLEO151F51
         K14M70H  C2013 08 31.42233 22 25 48.409-12 49 08.27         22.1 wLEO151F51
         K14M70H  C2013 08 31.43679 22 25 48.350-12 49 08.45         21.9 wLEO151F51
         K14M70H  C2013 08 31.45125 22 25 48.275-12 49 09.11         22.0 wLEO151F51
         K14M70H* C2014 06 28.51089 22 33 57.711-12 01 50.59         22.5 wLEO151F51
         K14M70H  C2014 06 28.52301 22 33 57.703-12 01 50.91         22.4 wLEO151F51
         K14M70H  C2014 06 28.53508 22 33 57.677-12 01 51.14         22.3 wLEO151F51
         K14M70H  C2014 06 28.54714 22 33 57.665-12 01 51.29         22.3 wLEO151F51
         K14M70H  C2014 07 25.52380 22 32 45.248-12 10 24.65         22.4 wLEO151F51
         K14M70H  C2014 07 25.53589 22 32 45.201-12 10 24.85         22.1 wLEO151F51
         K14M70H  C2014 07 25.54802 22 32 45.154-12 10 25.19         22.4 wLEO151F51
         K14M70H  C2014 07 25.56013 22 32 45.119-12 10 25.60         22.5 wLEO151F51
         K14M70H  C2014 08 03.47754 22 32 12.182-12 13 58.59         22.4 wLEO151F51
         K14M70H  C2014 08 03.49102 22 32 12.132-12 13 58.95         22.2 wLEO151F51
         K14M70H  C2014 08 03.50443 22 32 12.067-12 13 59.16         22.4 wLEO151F51
         K14M70H  C2014 08 03.51787 22 32 12.022-12 13 59.56         22.3 wLEO151F51
         K14M70H  C2014 11 10.21019 22 26 36.816-12 44 18.72         22.7 wLEO151F51
         K14M70H  C2014 11 10.22248 22 26 36.826-12 44 18.64         22.5 wLEO151F51
         K14M70H  C2014 11 10.23476 22 26 36.799-12 44 18.65         22.5 wLEO151F51
         K14M70H  C2014 11 10.24707 22 26 36.794-12 44 18.78         22.6 wLEO151F51
         K14M70H  C2015 07 12.50358 22 37 46.423-11 42 28.34         22.4 wLEO151F51
         K14M70H  C2015 07 12.51471 22 37 46.388-11 42 28.35         22.2 wLEO151F51
         K14M70H  C2015 07 12.52588 22 37 46.361-11 42 28.20         22.2 wLEO151F51
         K14M70H  C2015 07 12.53614 22 37 46.336-11 42 28.75         22.2 wLEO151F51
    
    Observer details:
    F51 Pan-STARRS 1, Haleakala.  Observers B. Gibson, T. Goggia, N. Primak,
        A. Schultz, M. Willman.  Measurers K. Chambers, S. Chastel, Y.-T. Chen,
        L. Denneau, H. Flewelling, M. Holman, M. Huber, R. Jedicke, M. Lackner,
        E. Lilly, H.-W. Lin, E. Magnier, M. Micheli, M. Payne, P. Veres,
        R. Wainscoat, C. Waters, R. Weryk.  1.8-m Ritchey-Chretien + CCD.
    
    Orbital elements:
    2014 MH70
    Epoch 2016 July 31.0 TT = JDT 2457600.5                 MPC
    M 138.50220              (2000.0)            P               Q
    n   0.00400463     Peri.   89.45807     -0.99073675     +0.12335265
    a  39.2730235      Node    97.62667     -0.13574907     -0.91069058
    e   0.1743217      Incl.    3.28452     +0.00359015     -0.39424205
    P 246              H    5.6           G   0.15           U   4
    Residuals in seconds of arc
    130809 F51  0.0   0.1+    140628 F51  0.0   0.1+    141110 F51  0.0   0.1-
    130809 F51  0.1-  0.0     140628 F51  0.2+  0.2+    141110 F51  0.3+  0.0
    130809 F51  0.1-  0.0     140725 F51  0.2+  0.0     141110 F51  0.0   0.0
    130809 F51  0.1-  0.0     140725 F51  0.1+  0.0     141110 F51  0.1+  0.2-
    130831 F51  0.2+  0.1-    140725 F51  0.0   0.0     150712 F51  0.0   0.2-
    130831 F51  0.0   0.0     140725 F51  0.2+  0.2-    150712 F51  0.1-  0.0
    130831 F51  0.1+  0.2+    140803 F51  0.2-  0.2-    150712 F51  0.0   0.4+
    130831 F51  0.1-  0.1-    140803 F51  0.1-  0.2-    150712 F51  0.0   0.0
    140628 F51  0.1-  0.3+    140803 F51  0.3-  0.1-
    140628 F51  0.1+  0.2+    140803 F51  0.2-  0.1-
    
    Ephemeris:
    2014 MH70                a,e,i = 39.27, 0.17, 3                  q = 32.427
    Date    TT    R. A. (2000) Decl.     Delta      r     Elong.  Phase     V
    2016 06 17    22 42 45.5 -11 13 21  44.4986 44.8237   108.0     1.2    22.3
    ...
    2016 07 02    22 42 26.0 -11 16 20  44.2740 44.8274   122.4     1.1    22.3
    ...
    2016 07 10    22 42 08.7 -11 18 33  44.1675 44.8293   130.1     1.0    22.2
    ...
    2016 07 16    22 41 52.9 -11 20 28  44.0954 44.8308   135.9     0.9    22.2
    2016 07 17    22 41 50.0 -11 20 48  44.0840 44.8310   136.9     0.9    22.2
    2016 07 18    22 41 47.1 -11 21 08  44.0729 44.8313   137.8     0.9    22.2
    ...
    2016 07 24    22 41 28.4 -11 23 18  44.0109 44.8328   143.6     0.8    22.2
    ...
    2016 08 01    22 41 00.6 -11 26 24  43.9413 44.8347   151.4     0.6    22.2
    ...
    2016 08 16    22 40 01.3 -11 32 44  43.8559 44.8384   165.8     0.3    22.1
    
    A. U. Tomatic                (C) Copyright 2016 MPC           M.P.E.C. 2016-O151
    

    Read MPEC 2016-O150 Read MPEC 2016-O152


    MPEC number:

    Enter an MPEC number in one of the following forms:

    • 1997-B01 (the full form)
    • J97B01 (the packed version of the full form)
    • B01 (the abbreviated form)